Weather History for PAGH - August, 2014

Change the Weather History Date:

Friday, August 29, 2014

  Actual Average (PAFM) Record (PAFM)
Temperature  
Mean Temperature 39 °F -  
Max Temperature 50 °F 53 °F 71 °F (2003)
Min Temperature 30 °F 40 °F 28 °F (1984)
Degree Days  
Heating Degree Days 26    
Moisture  
Dew Point 33 °F    
Average Humidity 74    
Maximum Humidity 96    
Minimum Humidity 46    
Precipitation  
Precipitation 0.00 in - - ()
Sea Level Pressure  
Sea Level Pressure 29.70 in    
Wind  
Wind Speed 13 mph (WNW)    
Max Wind Speed 16 mph    
Max Gust Speed 21 mph    
Visibility 10 miles    
Events      
Averages and records for this station are not official NWS values.
T = Trace of Precipitation, MM = Missing Value Source: NWS Daily Summary

Daily Weather History Graph

Daily Weather History Graph

Search for Another Location

Airport or City:

Trip Planner

Search our weather history database for the weather conditions in past years. The results will help you decide how hot, cold, wet, or windy it might be!

Date:

Astronomy

Aug. 29, 2014 Rise Set
Actual Time 6:50 AM AKDT 10:05 PM AKDT
Civil Twilight 5:46 AM AKDT 11:08 PM AKDT
Nautical Twilight 4:02 AM AKDT 12:49 AM AKDT
Astronomical Twilight Sun does not rise Sun does not rise
Moon 12:52 PM AKDT (8/29) 10:01 PM AKDT (8/29)
Length of Visible Light 17h 21m
Length of Day
15h 15m
Waxing Crescent, 16% of the Moon is Illuminated
Aug 29
Waxing Crescent
Sep 2
First Quarter
Sep 8
Full
Sep 15
Last Quarter
Sep 23
New

Hourly Weather History & Observations

Time (AKDT) Temp. Windchill Dew Point Humidity Pressure Visibility Wind Dir Wind Speed Gust Speed Precip Events Conditions
12:02 AM 42.8 °F 35.8 °F 39.2 °F 87% 29.53 in 10.0 mi WNW 13.8 mph - 0.00 in   Overcast
12:34 AM 42.8 °F 35.1 °F 37.4 °F 81% 29.54 in 10.0 mi WNW 16.1 mph - 0.00 in   Mostly Cloudy
12:46 AM 42.8 °F 36.2 °F 37.4 °F 81% 29.54 in 10.0 mi WNW 12.7 mph - 0.00 in   Mostly Cloudy
12:57 AM 41.0 °F 33.5 °F 37.0 °F 86% 29.63 in 10.0 mi WNW 13.8 mph - 0.00 in   Mostly Cloudy
1:57 AM 39.0 °F 30.6 °F 35.1 °F 86% 29.64 in 10.0 mi West 15.0 mph - N/A   Partly Cloudy
2:57 AM 37.0 °F 28.9 °F 34.0 °F 89% 29.65 in 10.0 mi West 12.7 mph - N/A   Clear
3:57 AM 35.1 °F 26.9 °F 33.1 °F 92% 29.66 in 10.0 mi West 11.5 mph - N/A   Clear
4:57 AM 34.0 °F 25.0 °F 32.0 °F 92% 29.67 in 10.0 mi West 12.7 mph - N/A   Clear
5:57 AM 33.1 °F 24.4 °F 30.9 °F 92% 29.69 in 10.0 mi WNW 11.5 mph - N/A   Clear
6:57 AM 30.0 °F 24.1 °F 28.9 °F 96% 29.70 in 10.0 mi NNW 5.8 mph - N/A   Clear
7:57 AM 30.9 °F 21.7 °F 30.0 °F 96% 29.70 in 10.0 mi WNW 11.5 mph - N/A   Clear
8:57 AM 36.0 °F 28.0 °F 32.0 °F 86% 29.71 in 10.0 mi WNW 11.5 mph - N/A   Clear
9:57 AM 37.9 °F 29.6 °F 32.0 °F 79% 29.72 in 10.0 mi West 13.8 mph - N/A   Clear
10:57 AM 39.9 °F 32.5 °F 34.0 °F 79% 29.72 in 10.0 mi West 12.7 mph - N/A   Clear
11:57 AM 42.1 °F 35.2 °F 34.0 °F 73% 29.73 in 10.0 mi WNW 12.7 mph - N/A   Clear
12:57 PM 44.1 °F 37.7 °F 32.0 °F 63% 29.74 in 10.0 mi WNW 12.7 mph - N/A   Partly Cloudy
1:57 PM 46.0 °F 40.6 °F 30.9 °F 56% 29.74 in 10.0 mi WNW 11.5 mph - N/A   Partly Cloudy
2:57 PM 46.9 °F - 30.0 °F 52% 29.75 in 10.0 mi WNW 12.7 mph - N/A   Partly Cloudy
3:57 PM 48.9 °F - 28.9 °F 46% 29.75 in 10.0 mi WNW 16.1 mph 20.7 mph N/A   Mostly Cloudy
4:57 PM 48.0 °F - 28.9 °F 48% 29.75 in 10.0 mi West 16.1 mph - N/A   Overcast
5:57 PM 48.0 °F - 30.0 °F 50% 29.75 in 10.0 mi WNW 13.8 mph - N/A   Overcast
6:57 PM 48.0 °F - 30.0 °F 50% 29.76 in 10.0 mi West 10.4 mph - N/A   Overcast
7:57 PM 46.0 °F 39.9 °F 30.9 °F 56% 29.76 in 10.0 mi West 13.8 mph - N/A   Scattered Clouds
8:57 PM 45.0 °F 39.3 °F 33.1 °F 63% 29.77 in 10.0 mi West 11.5 mph - N/A   Overcast
9:57 PM 43.0 °F 36.8 °F 34.0 °F 71% 29.78 in 10.0 mi West 11.5 mph - N/A   Scattered Clouds
10:57 PM 41.0 °F 35.2 °F 34.0 °F 76% 29.78 in 10.0 mi West 9.2 mph - N/A   Scattered Clouds
11:57 PM 39.0 °F 31.8 °F 33.1 °F 79% 29.78 in 10.0 mi WSW 11.5 mph - N/A   Overcast